Location: Albuquerque Trailhead
(34.7934°N, 106.3736°W)
Time: 18:30:26
(UTC+00:00)

CAS-4A - Pass Details

Date: 03 April 2023
Orbit: 506 x 522 km, 43.0° (Epoch: 31 May)

Event Time Altitude Azimuth Distance (km) Brightness Sun altitude
Exits shadow 10:00:57 16° 44° (NE) 1,382 ? -33.0°
Drops below altitude 10° 10:01:59 10° 52° (NE) 1,745 ? -32.9°
Enters shadow 11:00:57 -66° 256° (WSW) 12,242 ? -22.4°
